When you browse on this site, cookies collect data to enhance your experience and personalize the content and advertising you see.
Visit our Privacy Policy to learn more. By continuing to use the site, you agree to this use of cookies and data.
  • In France
  • List of Countries
  • For 7 days
  • Water Temperature
  • Weather Map
  • Weather Widgets
  • user-avatar
    Login

    Hourly Weather Mutare

    Today, 6 December, Friday

    Time Temperature Precipitation Wind Pressure Humidity
    00:00 +17°C° 0.6 mm 2 mps 655 mmHg 94%
    01:00 +17°C° 0.6 mm 2 mps 655 mmHg 94%
    02:00 +16°C° 0 mm 2 mps 654 mmHg 95%
    03:00 +16°C° 0.1 mm 2 mps 654 mmHg 95%
    04:00 +16°C° 0.1 mm 1 mps 654 mmHg 96%
    05:00 +15°C° 0.1 mm 1 mps 654 mmHg 97%
    06:00 +16°C° 0 mm 2 mps 654 mmHg 92%
    07:00 +17°C° 0 mm 2 mps 655 mmHg 87%
    08:00 +18°C° 0 mm 2 mps 655 mmHg 82%
    09:00 +20°C° 0 mm 2 mps 655 mmHg 74%
    10:00 +23°C° 0 mm 2 mps 655 mmHg 65%
    11:00 +25°C° 0 mm 3 mps 655 mmHg 56%
    12:00 +25°C° 0 mm 3 mps 654 mmHg 54%
    13:00 +26°C° 0 mm 3 mps 654 mmHg 52%
    14:00 +27°C° 0 mm 4 mps 653 mmHg 50%
    15:00 +25°C° 0 mm 4 mps 652 mmHg 55%
    16:00 +24°C° 0 mm 3 mps 652 mmHg 60%
    17:00 +22°C° 0 mm 3 mps 651 mmHg 65%
    18:00 +21°C° 0 mm 3 mps 651 mmHg 73%
    19:00 +19°C° 0 mm 2 mps 651 mmHg 80%
    20:00 +18°C° 0 mm 2 mps 652 mmHg 87%
    21:00 +17°C° 0 mm 2 mps 652 mmHg 90%
    22:00 +17°C° 0 mm 2 mps 652 mmHg 92%
    23:00 +18°C° 0 mm 1 mps 651 mmHg 94%

    Tomorrow, 7 December, Saturday

    Time Temperature Precipitation Wind Pressure Humidity
    00:00 +16°C° 0 mm 1 mps 651 mmHg 95%
    01:00 +16°C° 0 mm 1 mps 651 mmHg 96%
    02:00 +16°C° 0 mm 1 mps 651 mmHg 97%
    03:00 +16°C° 0 mm 1 mps 651 mmHg 97%
    04:00 +16°C° 0 mm 1 mps 651 mmHg 97%
    05:00 +15°C° 0 mm 0 mps 650 mmHg 97%
    06:00 +18°C° 0 mm 0 mps 651 mmHg 83%
    07:00 +21°C° 0 mm 0 mps 652 mmHg 70%
    08:00 +24°C° 0 mm 0 mps 653 mmHg 56%
    09:00 +26°C° 0 mm 0 mps 653 mmHg 50%
    10:00 +31°C° 0 mm 1 mps 654 mmHg 43%
    11:00 +33°C° 0 mm 1 mps 654 mmHg 37%
    12:00 +32°C° 0 mm 2 mps 653 mmHg 36%
    13:00 +32°C° 0 mm 2 mps 652 mmHg 36%
    14:00 +32°C° 0 mm 2 mps 651 mmHg 35%
    15:00 +31°C° 0 mm 2 mps 651 mmHg 40%
    16:00 +29°C° 0 mm 3 mps 650 mmHg 44%
    17:00 +28°C° 0 mm 3 mps 650 mmHg 49%
    18:00 +26°C° 0 mm 3 mps 650 mmHg 56%
    19:00 +24°C° 0 mm 2 mps 650 mmHg 63%
    20:00 +21°C° 0 mm 2 mps 650 mmHg 70%
    21:00 +21°C° 0 mm 2 mps 650 mmHg 74%
    22:00 +20°C° 0 mm 2 mps 650 mmHg 78%
    23:00 +19°C° 0 mm 2 mps 650 mmHg 83%

    Day after tomorrow, 8 December, Sunday

    Time Temperature Precipitation Wind Pressure Humidity
    00:00 +19°C° 0 mm 2 mps 650 mmHg 86%
    01:00 +19°C° 0 mm 1 mps 649 mmHg 88%
    02:00 +19°C° 0 mm 1 mps 649 mmHg 91%
    03:00 +19°C° 0 mm 1 mps 649 mmHg 90%
    04:00 +18°C° 0 mm 1 mps 649 mmHg 89%
    05:00 +18°C° 0 mm 1 mps 649 mmHg 88%
    06:00 +21°C° 0 mm 1 mps 650 mmHg 76%
    07:00 +24°C° 0 mm 1 mps 651 mmHg 64%
    08:00 +27°C° 0 mm 1 mps 652 mmHg 52%
    09:00 +29°C° 0 mm 1 mps 652 mmHg 47%
    10:00 +31°C° 0 mm 1 mps 652 mmHg 43%
    11:00 +34°C° 0 mm 2 mps 652 mmHg 38%
    12:00 +32°C° 0.3 mm 2 mps 651 mmHg 42%
    13:00 +30°C° 0.3 mm 2 mps 651 mmHg 45%
    14:00 +29°C° 0.3 mm 3 mps 650 mmHg 49%
    15:00 +28°C° 0.5 mm 2 mps 649 mmHg 54%
    16:00 +27°C° 0.5 mm 2 mps 649 mmHg 60%
    17:00 +26°C° 0.5 mm 2 mps 649 mmHg 65%
    18:00 +25°C° 1.7 mm 2 mps 649 mmHg 72%
    19:00 +23°C° 1.7 mm 2 mps 649 mmHg 78%
    20:00 +21°C° 1.7 mm 2 mps 650 mmHg 85%
    21:00 +20°C° 0.4 mm 2 mps 650 mmHg 87%
    22:00 +20°C° 0.4 mm 2 mps 650 mmHg 90%
    23:00 +19°C° 0.4 mm 2 mps 650 mmHg 93%

    9 December, Monday

    Time Temperature Precipitation Wind Pressure Humidity
    00:00 +19°C° 0.2 mm 2 mps 650 mmHg 94%
    01:00 +19°C° 0.2 mm 2 mps 650 mmHg 95%
    02:00 +19°C° 0.2 mm 2 mps 649 mmHg 96%
    03:00 +20°C° 0 mm 1 mps 649 mmHg 96%
    04:00 +19°C° 0 mm 1 mps 649 mmHg 96%
    05:00 +19°C° 0 mm 1 mps 649 mmHg 96%
    06:00 +21°C° 0 mm 1 mps 650 mmHg 89%
    07:00 +22°C° 0 mm 1 mps 650 mmHg 82%
    08:00 +24°C° 0 mm 1 mps 651 mmHg 76%
    09:00 +26°C° 0.3 mm 2 mps 651 mmHg 66%
    10:00 +28°C° 0.3 mm 2 mps 651 mmHg 57%
    11:00 +30°C° 0.3 mm 2 mps 651 mmHg 47%
    12:00 +30°C° 0.1 mm 3 mps 651 mmHg 46%
    13:00 +30°C° 0.1 mm 3 mps 650 mmHg 46%
    14:00 +30°C° 0.1 mm 3 mps 649 mmHg 45%
    15:00 +30°C° 0.1 mm 4 mps 649 mmHg 48%
    16:00 +29°C° 0.1 mm 4 mps 649 mmHg 51%
    17:00 +28°C° 0.1 mm 4 mps 648 mmHg 55%
    18:00 +26°C° 0.1 mm 4 mps 648 mmHg 64%
    19:00 +24°C° 0.1 mm 3 mps 648 mmHg 73%
    20:00 +21°C° 0.1 mm 2 mps 649 mmHg 82%
    21:00 +20°C° 0.3 mm 2 mps 649 mmHg 86%
    22:00 +20°C° 0.3 mm 2 mps 649 mmHg 90%
    23:00 +20°C° 0.3 mm 1 mps 649 mmHg 94%

    10 December, Tuesday

    Time Temperature Precipitation Wind Pressure Humidity
    00:00 +20°C° 0.2 mm 1 mps 649 mmHg 95%
    01:00 +20°C° 0.2 mm 1 mps 649 mmHg 95%
    02:00 +19°C° 0.2 mm 2 mps 648 mmHg 96%
    03:00 +20°C° 0.4 mm 1 mps 648 mmHg 96%
    04:00 +20°C° 0.4 mm 1 mps 649 mmHg 96%
    05:00 +20°C° 0.4 mm 1 mps 649 mmHg 96%
    06:00 +21°C° 0.4 mm 1 mps 649 mmHg 92%
    07:00 +22°C° 0.4 mm 1 mps 650 mmHg 87%
    08:00 +23°C° 0.4 mm 1 mps 650 mmHg 83%
    09:00 +24°C° 0.9 mm 1 mps 650 mmHg 79%
    10:00 +25°C° 0.9 mm 1 mps 650 mmHg 74%
    11:00 +26°C° 0.9 mm 1 mps 650 mmHg 70%
    12:00 +26°C° 2.6 mm 1 mps 650 mmHg 73%
    13:00 +26°C° 2.6 mm 1 mps 649 mmHg 75%
    14:00 +26°C° 2.6 mm 1 mps 649 mmHg 77%
    15:00 +24°C° 2.6 mm 1 mps 648 mmHg 83%
    16:00 +23°C° 2.6 mm 1 mps 648 mmHg 88%
    17:00 +22°C° 2.6 mm 1 mps 648 mmHg 94%
    18:00 +21°C° 3.2 mm 1 mps 648 mmHg 95%
    19:00 +21°C° 3.2 mm 1 mps 648 mmHg 96%
    20:00 +20°C° 3.2 mm 1 mps 648 mmHg 98%
    21:00 +20°C° 10.6 mm 1 mps 648 mmHg 97%
    22:00 +20°C° 10.6 mm 1 mps 648 mmHg 97%
    23:00 +19°C° 10.6 mm 1 mps 649 mmHg 97%

    11 December, Wednesday

    Time Temperature Precipitation Wind Pressure Humidity
    00:00 +19°C° 2.4 mm 1 mps 648 mmHg 97%
    01:00 +17°C° 2.4 mm 0 mps 648 mmHg 97%
    02:00 +16°C° 2.4 mm 0 mps 647 mmHg 97%
    03:00 +16°C° 1.7 mm 0 mps 648 mmHg 97%
    04:00 +18°C° 1.7 mm 1 mps 648 mmHg 97%
    05:00 +18°C° 1.7 mm 1 mps 648 mmHg 97%
    06:00 +19°C° 0.2 mm 1 mps 649 mmHg 94%
    07:00 +20°C° 0.2 mm 1 mps 649 mmHg 91%
    08:00 +21°C° 0.2 mm 1 mps 650 mmHg 88%
    09:00 +23°C° 0 mm 1 mps 650 mmHg 78%
    10:00 +25°C° 0 mm 2 mps 651 mmHg 68%
    11:00 +27°C° 0 mm 3 mps 651 mmHg 59%
    12:00 +27°C° 0 mm 3 mps 651 mmHg 55%
    13:00 +28°C° 0 mm 3 mps 650 mmHg 52%
    14:00 +29°C° 0 mm 3 mps 650 mmHg 49%
    15:00 +28°C° 0 mm 2 mps 650 mmHg 53%
    16:00 +27°C° 0 mm 2 mps 649 mmHg 57%
    17:00 +27°C° 0 mm 1 mps 649 mmHg 62%
    18:00 +25°C° 0.1 mm 1 mps 649 mmHg 69%
    19:00 +23°C° 0.1 mm 1 mps 649 mmHg 76%
    20:00 +19°C° 0.1 mm 0 mps 649 mmHg 83%
    21:00 +20°C° 0 mm 1 mps 649 mmHg 85%
    22:00 +20°C° 0 mm 1 mps 650 mmHg 87%
    23:00 +20°C° 0 mm 1 mps 650 mmHg 90%
    Show more